This is the latest recevied weather packets stored in our database for station/object N3AVN. If no packets are shown the sender has not sent any weather packets the latest 10 day(s).
| Time | Temp. | Humidity | Pressure | Rain* | Wind** | Luminosity | Snow |
|---|---|---|---|---|---|---|---|
| 1777493483 | 20° C | 50% | 1010.2 hPa | 0 mm | - | 376 W/m² | - |
| 1777493180 | 20° C | 50% | 1010.3 hPa | 0 mm | - | 399 W/m² | - |
| 1777492876 | 18.89° C | 50% | 1010.2 hPa | 0 mm | - | 399 W/m² | - |
| 1777492573 | 19.44° C | 50% | 1010.1 hPa | 0 mm | - | 311 W/m² | - |
| 1777492268 | 19.44° C | 50% | 1010.1 hPa | 0 mm | - | 338 W/m² | - |
| 1777491966 | 19.44° C | 49% | 1009.9 hPa | 0 mm | - | 261 W/m² | - |
| 1777491661 | 18.89° C | 49% | 1010.2 hPa | 0 mm | - | 202 W/m² | - |
| 1777491360 | 19.44° C | 48% | 1010.4 hPa | 0 mm | - | 225 W/m² | - |
| 1777491056 | 20° C | 48% | 1010.2 hPa | 0 mm | - | 290 W/m² | - |
| 1777490751 | 19.44° C | 49% | 1010.2 hPa | 0 mm | - | 276 W/m² | - |
| 1777490449 | 19.44° C | 48% | 1009.9 hPa | 0 mm | - | 258 W/m² | - |
| 1777490145 | 19.44° C | 49% | 1010.4 hPa | 0 mm | - | 279 W/m² | - |
| 1777489843 | 18.89° C | 48% | 1010.3 hPa | 0 mm | - | 219 W/m² | - |
| 1777489540 | 18.89° C | 48% | 1010.6 hPa | 0 mm | - | 225 W/m² | - |
| 1777489237 | 18.89° C | 48% | 1010.7 hPa | 0 mm | - | 262 W/m² | - |
| 1777488933 | 18.89° C | 49% | 1010.7 hPa | 0 mm | - | 290 W/m² | - |
| 1777488631 | 18.89° C | 48% | 1010.9 hPa | 0 mm | - | 239 W/m² | - |
| 1777488328 | 18.89° C | 49% | 1011 hPa | 0 mm | - | 261 W/m² | - |
| 1777488027 | 19.44° C | 48% | 1011.2 hPa | 0 mm | - | 252 W/m² | - |
| 1777487724 | 19.44° C | 49% | 1011 hPa | 0 mm | - | 251 W/m² | - |
| 1777487421 | 18.89° C | 49% | 1011.3 hPa | 0 mm | - | 341 W/m² | - |
| 1777487119 | 18.89° C | 49% | 1011.3 hPa | 0 mm | - | 311 W/m² | - |
| 1777486814 | 18.89° C | 51% | 1011.3 hPa | 0 mm | - | 469 W/m² | - |
| 1777486512 | 19.44° C | 50% | 1011.1 hPa | 0 mm | - | 527 W/m² | - |
| 1777486204 | 18.89° C | 49% | 1011.7 hPa | 0 mm | - | 471 W/m² | - |
* Rain latest hour (hover to see other rain measurements)
** Current wind speed in m/s (hover to see current wind gust speed)